TimeCDT,TemperatureF,Dew PointF,Humidity,Sea Level PressureIn,VisibilityMPH,Wind Direction,Wind SpeedMPH,Gust SpeedMPH,PrecipitationIn,Events,Conditions,WindDirDegrees,DateUTC
12:54 AM,51.1,50.0,96,29.95,10.0,Calm,Calm,-,N/A,,Clear,0,2013-04-01 05:54:00
1:54 AM,46.9,46.0,97,29.95,10.0,South,3.5,-,N/A,,Clear,180,2013-04-01 06:54:00
2:54 AM,46.0,45.0,96,29.95,10.0,Calm,Calm,-,N/A,,Clear,0,2013-04-01 07:54:00
3:54 AM,46.4,44.6,93,29.97,10.0,Calm,Calm,-,N/A,,Clear,0,2013-04-01 08:54:00
5:54 AM,46.0,44.1,93,29.99,10.0,Calm,Calm,-,N/A,,Clear,0,2013-04-01 10:54:00
6:54 AM,46.0,44.1,93,30.02,10.0,Calm,Calm,-,N/A,,Clear,0,2013-04-01 11:54:00
7:54 AM,50.0,48.2,94,30.05,10.0,Calm,Calm,-,N/A,,Clear,0,2013-04-01 12:54:00
8:54 AM,55.0,46.0,72,30.08,10.0,NNE,10.4,-,N/A,,Clear,30,2013-04-01 13:54:00
9:54 AM,57.9,46.0,65,30.08,10.0,NE,9.2,-,N/A,,Clear,40,2013-04-01 14:54:00
11:54 AM,64.0,45.0,50,30.12,10.0,North,10.4,-,N/A,,Clear,350,2013-04-01 16:54:00
12:54 PM,64.9,45.0,48,30.11,10.0,NNE,4.6,-,N/A,,Clear,30,2013-04-01 17:54:00
1:54 PM,66.9,44.1,44,30.09,10.0,North,3.5,-,N/A,,Clear,360,2013-04-01 18:54:00
2:54 PM,68.0,44.1,42,30.08,10.0,NE,4.6,-,N/A,,Partly Cloudy,40,2013-04-01 19:54:00
3:54 PM,69.8,44.6,40,30.07,10.0,WNW,8.1,-,N/A,,Partly Cloudy,300,2013-04-01 20:54:00
4:54 PM,68.0,43.0,40,30.07,10.0,NNW,10.4,-,N/A,,Scattered Clouds,340,2013-04-01 21:54:00
5:54 PM,64.9,41.0,42,30.07,10.0,North,10.4,-,N/A,,Partly Cloudy,350,2013-04-01 22:54:00
6:54 PM,61.0,39.9,46,30.09,10.0,North,13.8,-,N/A,,Scattered Clouds,360,2013-04-01 23:54:00
7:54 PM,59.0,39.0,48,30.09,10.0,NE,6.9,-,N/A,,Partly Cloudy,40,2013-04-02 00:54:00
8:54 PM,55.9,39.9,55,30.12,10.0,North,3.5,-,N/A,,Partly Cloudy,10,2013-04-02 01:54:00
9:54 PM,57.0,39.9,53,30.12,10.0,NE,10.4,-,N/A,,Mostly Cloudy,50,2013-04-02 02:54:00
10:54 PM,55.9,37.9,51,30.12,10.0,NE,9.2,-,N/A,,Mostly Cloudy,50,2013-04-02 03:54:00
11:54 PM,55.0,37.9,53,30.11,10.0,ENE,9.2,-,N/A,,Mostly Cloudy,60,2013-04-02 04:54:00